« Back
NWS Peachtree City, Ga » Text Product » ATL Terminal Aerodrome Forecast


Printer-friendly Version
Current Version              Previous Versions:   1  2  3  4  5  6  7  8  9  

Terminal Aerodrome Forecast

230
FTUS42 KFFC 231300 AAA
TAFATL
TAF AMD
KATL 231353Z 2314/2418 32010KT P6SM SKC
     FM240700 02004KT P6SM SKC
     FM241400 10008KT P6SM SKC
     FM241700 16008KT P6SM SCT040=

USA.gov is the U.S. government's official web portal to all federal, state and local government web resources and services.